TAP1211 LPPT-LPMA

Flight info

Callsign TAP1211
Flight time 2h 18m
Altitude 41000
Route ULVOT DCT GALPA DCT RAKUN
Aircraft A359/H-SDE2E3GHIJ3J4J5LM1ORWXY/LB1D1

Departure

Time 2026-05-05 14:59
Airport Lisbon Humberto Delgado Airport (LPPT)

Arrival

Time 2026-05-05 17:17
Airport Cristiano Ronaldo International Airport (LPMA)
Time Latitude Longitude Altitude Speed Heading
2026-05-05 14:34 38.77549 -9.13183 344 ft 0 kts 78°
2026-05-05 14:47 38.77548 -9.13190 343 ft 3 kts 78°
2026-05-05 14:47 38.77544 -9.13211 356 ft 3 kts 78°
2026-05-05 14:48 38.77540 -9.13237 354 ft 3 kts 78°
2026-05-05 14:48 38.77536 -9.13262 353 ft 3 kts 78°
2026-05-05 14:48 38.77532 -9.13284 355 ft 3 kts 86°
2026-05-05 14:48 38.77534 -9.13306 355 ft 3 kts 134°
2026-05-05 14:49 38.77549 -9.13316 355 ft 3 kts 174°
2026-05-05 14:49 38.77569 -9.13317 355 ft 3 kts 174°
2026-05-05 14:49 38.77579 -9.13316 355 ft 1 kts 168°
2026-05-05 14:49 38.77579 -9.13312 355 ft 0 kts 168°
2026-05-05 14:54 38.77558 -9.13309 355 ft 7 kts 172°
2026-05-05 14:54 38.77485 -9.13294 355 ft 15 kts 169°
2026-05-05 14:54 38.77381 -9.13266 350 ft 15 kts 169°
2026-05-05 14:55 38.77321 -9.13337 354 ft 12 kts 261°
2026-05-05 14:55 38.77306 -9.13439 360 ft 11 kts 258°
2026-05-05 14:55 38.77291 -9.13531 361 ft 10 kts 258°
2026-05-05 14:55 38.77275 -9.13624 363 ft 11 kts 258°
2026-05-05 14:56 38.77259 -9.13724 365 ft 12 kts 258°
2026-05-05 14:56 38.77235 -9.13832 365 ft 13 kts 239°
2026-05-05 14:56 38.77157 -9.13885 367 ft 15 kts 202°
2026-05-05 14:56 38.77045 -9.13945 361 ft 20 kts 202°
2026-05-05 14:57 38.76908 -9.14018 360 ft 22 kts 202°
2026-05-05 14:57 38.76751 -9.14103 359 ft 26 kts 202°
2026-05-05 14:57 38.76621 -9.14173 355 ft 15 kts 204°
2026-05-05 14:57 38.76597 -9.14240 352 ft 9 kts 275°
2026-05-05 14:58 38.76629 -9.14333 348 ft 14 kts 302°
2026-05-05 14:58 38.76709 -9.14355 353 ft 12 kts 22°
2026-05-05 14:58 38.76908 -9.14249 356 ft 65 kts 22°
2026-05-05 14:58 38.77529 -9.13916 376 ft 129 kts 21°
2026-05-05 14:59 38.78508 -9.13389 603 ft 165 kts 18°
2026-05-05 14:59 38.79556 -9.12782 1400 ft 165 kts 21°
2026-05-05 14:59 38.80590 -9.12114 2259 ft 168 kts 20°
2026-05-05 14:59 38.81543 -9.11198 3079 ft 175 kts 37°
2026-05-05 15:00 38.82472 -9.10147 3831 ft 180 kts 35°
2026-05-05 15:00 38.83139 -9.09497 4218 ft 186 kts 28°
2026-05-05 15:00 38.84803 -9.08484 4743 ft 211 kts 19°
2026-05-05 15:00 38.86193 -9.07658 5133 ft 233 kts 25°
2026-05-05 15:01 38.87506 -9.06266 5605 ft 257 kts 50°
2026-05-05 15:01 38.88151 -9.04102 6453 ft 269 kts 80°
2026-05-05 15:01 38.87890 -9.01706 7286 ft 280 kts 110°
2026-05-05 15:01 38.86938 -8.99489 8132 ft 288 kts 124°
2026-05-05 15:02 38.86041 -8.98214 8672 ft 296 kts 139°
2026-05-05 15:02 38.83510 -8.96841 9884 ft 302 kts 177°
2026-05-05 15:02 38.82119 -8.96931 10381 ft 305 kts 194°
2026-05-05 15:02 38.79351 -8.98227 11000 ft 329 kts 207°
2026-05-05 15:03 38.77935 -8.99033 11245 ft 343 kts 207°
2026-05-05 15:03 38.75698 -9.00285 11773 ft 357 kts 206°
2026-05-05 15:03 38.72629 -9.01959 12844 ft 365 kts 206°
2026-05-05 15:03 38.71043 -9.02816 13420 ft 368 kts 206°
2026-05-05 15:04 38.68670 -9.04093 14193 ft 373 kts 206°
2026-05-05 15:04 38.65475 -9.05806 15216 ft 378 kts 206°
2026-05-05 15:04 38.63045 -9.07106 16016 ft 381 kts 206°
2026-05-05 15:04 38.61415 -9.07976 16552 ft 382 kts 206°
2026-05-05 15:05 38.56468 -9.10617 18105 ft 388 kts 206°
2026-05-05 15:05 38.53961 -9.11953 18820 ft 392 kts 206°
2026-05-05 15:05 38.51438 -9.13297 19520 ft 395 kts 206°
2026-05-05 15:06 38.48890 -9.14652 20236 ft 398 kts 206°
2026-05-05 15:06 38.46325 -9.16017 20956 ft 402 kts 206°
2026-05-05 15:06 38.43737 -9.17412 21671 ft 404 kts 207°
2026-05-05 15:06 38.41267 -9.19127 22359 ft 404 kts 217°
2026-05-05 15:07 38.38990 -9.21229 23037 ft 406 kts 220°
2026-05-05 15:07 38.36741 -9.23433 23714 ft 410 kts 221°
2026-05-05 15:07 38.34475 -9.25660 24339 ft 412 kts 221°
2026-05-05 15:07 38.32196 -9.27890 25004 ft 413 kts 221°
2026-05-05 15:08 38.29916 -9.30116 25671 ft 413 kts 221°
2026-05-05 15:08 38.27625 -9.32347 26296 ft 414 kts 221°
2026-05-05 15:08 38.25335 -9.34575 26953 ft 416 kts 221°
2026-05-05 15:08 38.23029 -9.36815 27546 ft 417 kts 221°
2026-05-05 15:09 38.20720 -9.39057 28178 ft 419 kts 221°
2026-05-05 15:09 38.18393 -9.41313 28776 ft 421 kts 222°
2026-05-05 15:09 38.16058 -9.43576 29351 ft 423 kts 222°
2026-05-05 15:09 38.13717 -9.45842 29911 ft 425 kts 222°
2026-05-05 15:10 38.11391 -9.48092 30373 ft 428 kts 222°
2026-05-05 15:10 38.09014 -9.50389 30781 ft 431 kts 222°
2026-05-05 15:10 38.06618 -9.52703 31192 ft 433 kts 222°
2026-05-05 15:10 38.04215 -9.55021 31585 ft 436 kts 222°
2026-05-05 15:11 38.01798 -9.57350 31960 ft 438 kts 221°
2026-05-05 15:11 37.99359 -9.59702 32340 ft 440 kts 222°
2026-05-05 15:11 37.96987 -9.62168 32667 ft 441 kts 225°
2026-05-05 15:11 37.94653 -9.64705 33022 ft 443 kts 225°
2026-05-05 15:12 37.92307 -9.67245 33373 ft 445 kts 224°
2026-05-05 15:12 37.89931 -9.69800 33723 ft 447 kts 224°
2026-05-05 15:12 37.87562 -9.72333 34178 ft 445 kts 224°
2026-05-05 15:12 37.85198 -9.74854 34576 ft 444 kts 224°
2026-05-05 15:13 37.82836 -9.77368 34890 ft 445 kts 224°
2026-05-05 15:13 37.80460 -9.79895 35189 ft 445 kts 224°
2026-05-05 15:13 37.78196 -9.82299 35500 ft 446 kts 224°
2026-05-05 15:13 37.75963 -9.84668 35700 ft 448 kts 224°
2026-05-05 15:14 37.73570 -9.87204 35972 ft 448 kts 224°
2026-05-05 15:14 37.71181 -9.89732 36295 ft 448 kts 224°
2026-05-05 15:14 37.68792 -9.92259 36604 ft 448 kts 224°
2026-05-05 15:14 37.66400 -9.94786 36899 ft 448 kts 224°
2026-05-05 15:15 37.64013 -9.97324 37195 ft 448 kts 225°
2026-05-05 15:15 37.61828 -10.00016 37457 ft 445 kts 232°
2026-05-05 15:15 37.59817 -10.02974 37737 ft 443 kts 233°
2026-05-05 15:15 37.57877 -10.05985 38012 ft 443 kts 234°
2026-05-05 15:16 37.55960 -10.09033 38286 ft 443 kts 234°
2026-05-05 15:16 37.54055 -10.12077 38552 ft 443 kts 234°
2026-05-05 15:16 37.52143 -10.15126 38794 ft 443 kts 234°
2026-05-05 15:16 37.50228 -10.18162 38989 ft 443 kts 234°
2026-05-05 15:17 37.48300 -10.21204 39142 ft 444 kts 234°
2026-05-05 15:17 37.46373 -10.24230 39271 ft 446 kts 234°
2026-05-05 15:17 37.44426 -10.27278 39440 ft 446 kts 233°
2026-05-05 15:17 37.42482 -10.30317 39612 ft 446 kts 233°
2026-05-05 15:18 37.40527 -10.33370 39776 ft 447 kts 233°
2026-05-05 15:18 37.38574 -10.36415 39945 ft 447 kts 233°
2026-05-05 15:18 37.36624 -10.39456 40089 ft 448 kts 233°
2026-05-05 15:18 37.34671 -10.42498 40238 ft 448 kts 233°
2026-05-05 15:19 37.32706 -10.45557 40389 ft 449 kts 233°
2026-05-05 15:19 37.30745 -10.48607 40534 ft 449 kts 233°
2026-05-05 15:19 37.28785 -10.51653 40688 ft 449 kts 233°
2026-05-05 15:19 37.26818 -10.54706 40807 ft 450 kts 233°
2026-05-05 15:20 37.24853 -10.57755 40960 ft 450 kts 233°
2026-05-05 15:20 37.20891 -10.63892 41119 ft 453 kts 233°
2026-05-05 15:21 37.16928 -10.70018 41135 ft 452 kts 233°
2026-05-05 15:21 37.12981 -10.76107 41137 ft 452 kts 233°
2026-05-05 15:22 37.09017 -10.82213 41137 ft 452 kts 233°
2026-05-05 15:22 37.05040 -10.88327 41142 ft 452 kts 233°
2026-05-05 15:23 37.01062 -10.94433 41136 ft 452 kts 233°
2026-05-05 15:23 36.97081 -11.00532 41140 ft 453 kts 233°
2026-05-05 15:24 36.93091 -11.06633 41144 ft 453 kts 233°
2026-05-05 15:24 36.89097 -11.12729 41148 ft 453 kts 233°
2026-05-05 15:25 36.85103 -11.18814 41147 ft 453 kts 233°
2026-05-05 15:25 36.81100 -11.24902 41149 ft 453 kts 233°
2026-05-05 15:26 36.77125 -11.30935 41145 ft 453 kts 233°
2026-05-05 15:26 36.73116 -11.37009 41140 ft 453 kts 232°
2026-05-05 15:27 36.69099 -11.43085 41159 ft 453 kts 232°
2026-05-05 15:27 36.65082 -11.49150 41147 ft 454 kts 232°
2026-05-05 15:28 36.61059 -11.55214 41149 ft 454 kts 232°
2026-05-05 15:28 36.57028 -11.61276 41148 ft 454 kts 232°
2026-05-05 15:29 36.52995 -11.67332 41149 ft 454 kts 232°
2026-05-05 15:29 36.48958 -11.73384 41149 ft 454 kts 232°
2026-05-05 15:30 36.44923 -11.79421 41153 ft 454 kts 232°
2026-05-05 15:30 36.40883 -11.85455 41154 ft 454 kts 232°
2026-05-05 15:31 36.36862 -11.91449 41151 ft 455 kts 232°
2026-05-05 15:31 36.32810 -11.97480 41154 ft 455 kts 232°
2026-05-05 15:32 36.28719 -12.03556 41156 ft 455 kts 232°
2026-05-05 15:32 36.24661 -12.09575 41157 ft 456 kts 232°
2026-05-05 15:33 36.20590 -12.15600 41151 ft 456 kts 232°
2026-05-05 15:33 36.16515 -12.21620 41157 ft 456 kts 232°
2026-05-05 15:34 36.12464 -12.27596 41156 ft 456 kts 232°
2026-05-05 15:34 36.08383 -12.33605 41156 ft 456 kts 232°
2026-05-05 15:35 36.04303 -12.39602 41161 ft 455 kts 232°
2026-05-05 15:35 36.00216 -12.45597 41159 ft 456 kts 232°
2026-05-05 15:36 35.96127 -12.51587 41160 ft 456 kts 232°
2026-05-05 15:36 35.92030 -12.57577 41159 ft 456 kts 232°
2026-05-05 15:37 35.87931 -12.63558 41158 ft 456 kts 232°
2026-05-05 15:37 35.83829 -12.69535 41159 ft 456 kts 232°
2026-05-05 15:38 35.79746 -12.75473 41158 ft 456 kts 232°
2026-05-05 15:38 35.75646 -12.81425 41159 ft 456 kts 232°
2026-05-05 15:39 35.71538 -12.87379 41160 ft 457 kts 232°
2026-05-05 15:39 35.67421 -12.93335 41159 ft 456 kts 232°
2026-05-05 15:40 35.63300 -12.99287 41158 ft 456 kts 231°
2026-05-05 15:40 35.59179 -13.05228 41159 ft 456 kts 231°
2026-05-05 15:41 35.55055 -13.11162 41161 ft 456 kts 231°
2026-05-05 15:41 35.50927 -13.17093 41152 ft 457 kts 231°
2026-05-05 15:42 35.46828 -13.22973 41160 ft 456 kts 231°
2026-05-05 15:42 35.42697 -13.28887 41160 ft 456 kts 231°
2026-05-05 15:43 35.38564 -13.34793 41160 ft 456 kts 231°
2026-05-05 15:43 35.34423 -13.40701 41162 ft 456 kts 231°
2026-05-05 15:44 35.30286 -13.46594 41162 ft 456 kts 231°
2026-05-05 15:44 35.26145 -13.52482 41161 ft 456 kts 231°
2026-05-05 15:45 35.22000 -13.58366 41161 ft 456 kts 231°
2026-05-05 15:45 35.17853 -13.64243 41162 ft 456 kts 231°
2026-05-05 15:46 35.13726 -13.70081 41163 ft 456 kts 231°
2026-05-05 15:46 35.09573 -13.75947 41162 ft 456 kts 231°
2026-05-05 15:47 35.05421 -13.81801 41157 ft 456 kts 231°
2026-05-05 15:47 35.01258 -13.87660 41158 ft 456 kts 231°
2026-05-05 15:48 34.97096 -13.93508 41161 ft 456 kts 231°
2026-05-05 15:48 34.93637 -13.98360 41135 ft 456 kts 231°
2026-05-05 15:49 34.89475 -14.04192 41164 ft 456 kts 231°
2026-05-05 15:49 34.85311 -14.10014 41152 ft 456 kts 231°
2026-05-05 15:50 34.80468 -14.16774 41163 ft 456 kts 231°
2026-05-05 15:50 34.76972 -14.21646 41152 ft 456 kts 231°
2026-05-05 15:51 34.72803 -14.27447 41153 ft 456 kts 231°
2026-05-05 15:51 34.68652 -14.33213 41152 ft 456 kts 231°
2026-05-05 15:52 34.64475 -14.39005 41173 ft 456 kts 231°
2026-05-05 15:52 34.60298 -14.44789 41160 ft 455 kts 230°
2026-05-05 15:53 34.56129 -14.50551 41161 ft 454 kts 230°
2026-05-05 15:53 34.51954 -14.56312 41161 ft 454 kts 230°
2026-05-05 15:54 34.47786 -14.62054 41156 ft 454 kts 230°
2026-05-05 15:54 34.43607 -14.67802 41158 ft 454 kts 230°
2026-05-05 15:55 34.39434 -14.73533 41154 ft 454 kts 230°
2026-05-05 15:55 34.35126 -14.79134 41105 ft 451 kts 228°
2026-05-05 15:55 34.32966 -14.81822 40868 ft 442 kts 227°
2026-05-05 15:56 34.30833 -14.84465 40616 ft 436 kts 227°
2026-05-05 15:56 34.28729 -14.87082 40373 ft 433 kts 227°
2026-05-05 15:56 34.26634 -14.89702 40137 ft 432 kts 228°
2026-05-05 15:56 34.24564 -14.92302 39909 ft 426 kts 228°
2026-05-05 15:57 34.22531 -14.94861 39694 ft 417 kts 228°
2026-05-05 15:57 34.20546 -14.97361 39488 ft 408 kts 228°
2026-05-05 15:57 34.18604 -14.99807 39284 ft 399 kts 228°
2026-05-05 15:57 34.16706 -15.02196 39084 ft 390 kts 228°
2026-05-05 15:58 34.14854 -15.04527 38894 ft 381 kts 228°
2026-05-05 15:58 34.13042 -15.06806 38662 ft 372 kts 228°
2026-05-05 15:58 34.11272 -15.09028 38427 ft 363 kts 228°
2026-05-05 15:58 34.09540 -15.11203 38168 ft 354 kts 228°
2026-05-05 15:59 34.07855 -15.13316 37932 ft 345 kts 228°
2026-05-05 15:59 34.06207 -15.15382 37629 ft 339 kts 228°
2026-05-05 15:59 34.04583 -15.17417 37212 ft 334 kts 228°
2026-05-05 15:59 34.02979 -15.19427 36805 ft 331 kts 228°
2026-05-05 16:00 34.01396 -15.21411 36408 ft 327 kts 229°
2026-05-05 16:00 33.99828 -15.23373 36010 ft 324 kts 229°
2026-05-05 16:00 33.98291 -15.25294 35618 ft 321 kts 229°
2026-05-05 16:00 33.96744 -15.27229 35066 ft 323 kts 229°
2026-05-05 16:01 33.95161 -15.29211 34285 ft 333 kts 229°
2026-05-05 16:01 33.93523 -15.31262 33392 ft 344 kts 229°
2026-05-05 16:01 33.91817 -15.33395 32504 ft 354 kts 229°
2026-05-05 16:01 33.90105 -15.35531 31651 ft 364 kts 228°
2026-05-05 16:02 33.88319 -15.37756 30826 ft 374 kts 228°
2026-05-05 16:02 33.86492 -15.40031 29978 ft 383 kts 228°
2026-05-05 16:02 33.84657 -15.42400 29037 ft 390 kts 233°
2026-05-05 16:02 33.83350 -15.45226 28421 ft 386 kts 252°
2026-05-05 16:03 33.82918 -15.48377 27936 ft 383 kts 270°
2026-05-05 16:03 33.83389 -15.51511 27466 ft 382 kts 288°
2026-05-05 16:03 33.84711 -15.54274 27010 ft 385 kts 307°
2026-05-05 16:03 33.86745 -15.56376 26565 ft 390 kts 326°
2026-05-05 16:04 33.89279 -15.57575 26121 ft 395 kts 345°
2026-05-05 16:04 33.92020 -15.57723 25680 ft 400 kts
2026-05-05 16:04 33.94701 -15.56790 25249 ft 404 kts 23°
2026-05-05 16:04 33.97019 -15.54883 24818 ft 405 kts 40°
2026-05-05 16:05 33.99034 -15.52538 24402 ft 403 kts 43°
2026-05-05 16:05 34.01003 -15.50145 23985 ft 400 kts 44°
2026-05-05 16:05 34.02964 -15.47794 23560 ft 397 kts 44°
2026-05-05 16:05 34.04917 -15.45459 23083 ft 394 kts 44°
2026-05-05 16:06 34.06847 -15.43148 22597 ft 391 kts 44°
2026-05-05 16:06 34.08781 -15.40825 22131 ft 388 kts 44°
2026-05-05 16:06 34.10688 -15.38530 21658 ft 385 kts 44°
2026-05-05 16:06 34.12575 -15.36254 21205 ft 382 kts 44°
2026-05-05 16:07 34.14447 -15.33988 20755 ft 379 kts 44°
2026-05-05 16:07 34.16275 -15.31772 20326 ft 377 kts 44°
2026-05-05 16:07 34.18119 -15.29532 19900 ft 374 kts 44°
2026-05-05 16:07 34.19939 -15.27314 19462 ft 371 kts 44°
2026-05-05 16:08 34.21752 -15.25099 19044 ft 369 kts 44°
2026-05-05 16:08 34.23548 -15.22899 18617 ft 366 kts 44°
2026-05-05 16:08 34.25328 -15.20713 18171 ft 364 kts 44°
2026-05-05 16:08 34.27079 -15.18565 17693 ft 361 kts 44°
2026-05-05 16:09 34.28862 -15.16385 17218 ft 358 kts 44°
2026-05-05 16:09 34.30608 -15.14255 16785 ft 354 kts 44°
2026-05-05 16:09 34.32319 -15.12166 16602 ft 342 kts 44°
2026-05-05 16:09 34.33899 -15.10097 16534 ft 328 kts 51°
2026-05-05 16:10 34.35037 -15.07784 16462 ft 315 kts 66°
2026-05-05 16:10 34.35542 -15.05282 16412 ft 301 kts 86°
2026-05-05 16:10 34.35345 -15.02822 16339 ft 287 kts 106°
2026-05-05 16:10 34.34519 -15.00699 16272 ft 273 kts 126°
2026-05-05 16:11 34.33224 -14.99081 16201 ft 267 kts 145°
2026-05-05 16:11 34.28078 -14.97901 16071 ft 250 kts 199°
2026-05-05 16:12 34.26518 -14.98773 16022 ft 246 kts 217°
2026-05-05 16:12 34.24123 -15.01301 15923 ft 246 kts 225°
2026-05-05 16:13 34.20404 -15.05552 15783 ft 245 kts 225°
2026-05-05 16:13 34.19160 -15.06965 15734 ft 245 kts 225°
2026-05-05 16:13 34.17909 -15.08384 15725 ft 251 kts 225°
2026-05-05 16:14 34.15046 -15.11636 15770 ft 314 kts 224°
2026-05-05 16:14 34.11583 -15.15556 15800 ft 362 kts 224°
2026-05-05 16:15 34.07855 -15.19760 15801 ft 368 kts 224°
2026-05-05 16:15 34.04107 -15.23986 15798 ft 369 kts 224°
2026-05-05 16:16 34.00375 -15.28190 15794 ft 365 kts 224°
2026-05-05 16:16 33.96677 -15.32342 15805 ft 366 kts 224°
2026-05-05 16:17 33.92970 -15.36520 15796 ft 364 kts 224°
2026-05-05 16:17 33.91115 -15.38602 15786 ft 364 kts 224°
2026-05-05 16:18 33.87405 -15.42763 15793 ft 364 kts 224°
2026-05-05 16:18 33.85555 -15.44836 15781 ft 364 kts 224°
2026-05-05 16:18 33.81842 -15.48996 15783 ft 364 kts 224°
2026-05-05 16:19 33.79986 -15.51073 15781 ft 364 kts 224°
2026-05-05 16:19 33.78129 -15.53149 15781 ft 365 kts 224°
2026-05-05 16:19 33.74413 -15.57300 15778 ft 365 kts 224°
2026-05-05 16:20 33.70713 -15.61428 15227 ft 357 kts 224°
2026-05-05 16:20 33.67179 -15.65362 14642 ft 336 kts 225°
2026-05-05 16:21 33.63842 -15.69076 14071 ft 318 kts 225°
2026-05-05 16:22 33.59170 -15.74270 13122 ft 295 kts 225°
2026-05-05 16:22 33.56228 -15.77536 12583 ft 282 kts 225°
2026-05-05 16:23 33.53419 -15.80756 12057 ft 277 kts 227°
2026-05-05 16:23 33.52047 -15.82385 11818 ft 277 kts 227°
2026-05-05 16:23 33.49296 -15.85631 11383 ft 277 kts 226°
2026-05-05 16:24 33.47917 -15.87252 11381 ft 281 kts 227°
2026-05-05 16:24 33.46452 -15.88977 11413 ft 313 kts 226°
2026-05-05 16:24 33.43017 -15.93007 11434 ft 375 kts 225°
2026-05-05 16:25 33.41121 -15.95220 11433 ft 382 kts 226°
2026-05-05 16:25 33.37324 -15.99648 11420 ft 379 kts 225°
2026-05-05 16:25 33.35438 -16.01847 11278 ft 378 kts 225°
2026-05-05 16:26 33.31668 -16.06248 10689 ft 379 kts 225°
2026-05-05 16:26 33.27924 -16.10604 10045 ft 377 kts 225°
2026-05-05 16:27 33.26044 -16.12789 9650 ft 377 kts 225°
2026-05-05 16:27 33.24170 -16.14967 9255 ft 373 kts 225°
2026-05-05 16:27 33.22340 -16.17093 8859 ft 360 kts 225°
2026-05-05 16:27 33.20576 -16.19141 8481 ft 346 kts 225°
2026-05-05 16:28 33.18877 -16.21110 8123 ft 335 kts 225°
2026-05-05 16:28 33.17222 -16.23029 7762 ft 329 kts 225°
2026-05-05 16:28 33.15602 -16.24907 7435 ft 321 kts 225°
2026-05-05 16:28 33.14028 -16.26730 7178 ft 309 kts 225°
2026-05-05 16:29 33.12517 -16.28485 6938 ft 298 kts 224°
2026-05-05 16:29 33.11060 -16.30173 6690 ft 287 kts 224°
2026-05-05 16:29 33.09652 -16.31802 6434 ft 277 kts 224°
2026-05-05 16:29 33.08289 -16.33378 6183 ft 269 kts 224°
2026-05-05 16:30 33.06967 -16.34907 5940 ft 261 kts 224°
2026-05-05 16:30 33.05673 -16.36402 5683 ft 257 kts 223°
2026-05-05 16:30 33.04392 -16.37885 5424 ft 256 kts 224°
2026-05-05 16:30 33.03129 -16.39345 5160 ft 250 kts 223°
2026-05-05 16:31 33.01892 -16.40770 4910 ft 244 kts 223°
2026-05-05 16:31 33.00702 -16.42145 4643 ft 240 kts 223°
2026-05-05 16:31 32.99505 -16.43527 4381 ft 240 kts 221°
2026-05-05 16:31 32.98295 -16.44919 4144 ft 242 kts 222°
2026-05-05 16:32 32.97087 -16.46313 4010 ft 241 kts 221°
2026-05-05 16:32 32.95881 -16.47704 3981 ft 243 kts 221°
2026-05-05 16:32 32.94661 -16.49108 3936 ft 243 kts 222°
2026-05-05 16:32 32.93459 -16.50510 3870 ft 241 kts 223°
2026-05-05 16:33 32.92252 -16.51903 3824 ft 242 kts 219°
2026-05-05 16:33 32.90999 -16.53241 3764 ft 243 kts 217°
2026-05-05 16:33 32.89733 -16.54558 3710 ft 242 kts 218°
2026-05-05 16:33 32.88472 -16.55882 3652 ft 241 kts 219°
2026-05-05 16:34 32.87214 -16.57217 3593 ft 242 kts 218°
2026-05-05 16:34 32.85951 -16.58558 3551 ft 243 kts 218°
2026-05-05 16:34 32.84692 -16.59903 3500 ft 244 kts 218°
2026-05-05 16:34 32.83429 -16.61251 3442 ft 243 kts 218°
2026-05-05 16:35 32.82140 -16.62506 3221 ft 238 kts 210°
2026-05-05 16:35 32.81208 -16.63186 3063 ft 235 kts 203°
2026-05-05 16:35 32.79194 -16.64161 2725 ft 234 kts 194°
2026-05-05 16:35 32.78172 -16.64569 2591 ft 233 kts 193°
2026-05-05 16:36 32.76112 -16.65386 2420 ft 233 kts 193°
2026-05-05 16:36 32.74572 -16.66002 2289 ft 232 kts 193°
2026-05-05 16:36 32.73583 -16.66401 2189 ft 220 kts 193°
2026-05-05 16:36 32.72167 -16.66978 2077 ft 213 kts 193°
2026-05-05 16:37 32.70769 -16.67543 2014 ft 211 kts 193°
2026-05-05 16:37 32.69394 -16.68097 1995 ft 207 kts 193°
2026-05-05 16:37 32.68030 -16.68649 1991 ft 207 kts 193°
2026-05-05 16:37 32.66660 -16.69202 1994 ft 209 kts 193°
2026-05-05 16:38 32.65283 -16.69769 1991 ft 210 kts 195°
2026-05-05 16:38 32.64066 -16.70730 1979 ft 209 kts 229°
2026-05-05 16:38 32.63351 -16.72116 1994 ft 192 kts 243°
2026-05-05 16:38 32.62771 -16.73522 1993 ft 187 kts 245°
2026-05-05 16:39 32.62209 -16.74901 1994 ft 184 kts 243°
2026-05-05 16:39 32.61645 -16.76266 1995 ft 184 kts 242°
2026-05-05 16:39 32.61223 -16.77700 1860 ft 182 kts 261°
2026-05-05 16:39 32.61285 -16.79117 1684 ft 162 kts 295°
2026-05-05 16:40 32.61864 -16.80175 1539 ft 148 kts 328°
2026-05-05 16:40 32.62738 -16.80676 1428 ft 134 kts 359°
2026-05-05 16:40 32.63634 -16.80706 1288 ft 127 kts
2026-05-05 16:40 32.64506 -16.80688 1071 ft 124 kts
2026-05-05 16:41 32.65347 -16.80641 867 ft 117 kts 11°
2026-05-05 16:41 32.66158 -16.80527 784 ft 119 kts 13°
2026-05-05 16:41 32.66966 -16.80302 672 ft 118 kts 21°
2026-05-05 16:41 32.67665 -16.79817 578 ft 116 kts 35°
2026-05-05 16:42 32.68267 -16.79178 406 ft 115 kts 40°
2026-05-05 16:42 32.68851 -16.78538 213 ft 112 kts 43°
2026-05-05 16:42 32.69360 -16.77950 176 ft 82 kts 44°
2026-05-05 16:42 32.69759 -16.77499 209 ft 114 kts 42°
2026-05-05 16:43 32.70471 -16.76666 623 ft 169 kts 46°
2026-05-05 16:43 32.71365 -16.75543 1215 ft 205 kts 46°
2026-05-05 16:43 32.72293 -16.74250 1738 ft 196 kts 58°
2026-05-05 16:43 32.72625 -16.72765 2209 ft 191 kts 92°
2026-05-05 16:44 32.72092 -16.71281 2616 ft 204 kts 122°
2026-05-05 16:44 32.71051 -16.70092 2588 ft 207 kts 140°
2026-05-05 16:44 32.69819 -16.69376 2625 ft 179 kts 149°
2026-05-05 16:44 32.68729 -16.68553 3187 ft 198 kts 138°
2026-05-05 16:45 32.67864 -16.67181 3769 ft 224 kts 118°
2026-05-05 16:45 32.66939 -16.65522 4358 ft 254 kts 127°
2026-05-05 16:45 32.66131 -16.63628 4479 ft 257 kts 102°
2026-05-05 16:45 32.66294 -16.61544 4487 ft 260 kts 73°
2026-05-05 16:46 32.66988 -16.59526 4625 ft 268 kts 68°
2026-05-05 16:46 32.67875 -16.57526 4630 ft 277 kts 63°
2026-05-05 16:46 32.68905 -16.55742 4540 ft 246 kts 58°
2026-05-05 16:46 32.69816 -16.54154 4391 ft 219 kts 60°
2026-05-05 16:47 32.71066 -16.53252 4004 ft 220 kts 10°
2026-05-05 16:47 32.72509 -16.53732 3662 ft 220 kts 322°
2026-05-05 16:47 32.73253 -16.55261 3538 ft 215 kts 282°
2026-05-05 16:47 32.73296 -16.56970 3313 ft 199 kts 259°
2026-05-05 16:48 32.72924 -16.58463 3116 ft 180 kts 244°
2026-05-05 16:48 32.72733 -16.59869 2920 ft 165 kts 265°
2026-05-05 16:48 32.72619 -16.61173 2724 ft 156 kts 259°
2026-05-05 16:48 32.72109 -16.62270 2661 ft 154 kts 220°
2026-05-05 16:49 32.71277 -16.63200 2605 ft 177 kts 214°
2026-05-05 16:49 32.70325 -16.64160 2417 ft 180 kts 215°
2026-05-05 16:49 32.69367 -16.65115 2215 ft 180 kts 214°
2026-05-05 16:49 32.68407 -16.66066 2031 ft 179 kts 214°
2026-05-05 16:50 32.67460 -16.67001 1994 ft 176 kts 214°
2026-05-05 16:50 32.66517 -16.67932 1988 ft 177 kts 214°
2026-05-05 16:50 32.65559 -16.68873 1992 ft 180 kts 214°
2026-05-05 16:50 32.64605 -16.69832 1990 ft 180 kts 218°
2026-05-05 16:51 32.63847 -16.71034 1996 ft 185 kts 240°
2026-05-05 16:51 32.63250 -16.72402 1998 ft 188 kts 243°
2026-05-05 16:51 32.62675 -16.73792 1998 ft 187 kts 245°
2026-05-05 16:51 32.62104 -16.75173 1988 ft 185 kts 243°
2026-05-05 16:52 32.61538 -16.76547 1994 ft 185 kts 243°
2026-05-05 16:52 32.61053 -16.77959 1982 ft 186 kts 244°
2026-05-05 16:52 32.60151 -16.78986 1996 ft 182 kts 201°
2026-05-05 16:52 32.58959 -16.79112 2001 ft 167 kts 158°
2026-05-05 16:53 32.57903 -16.78623 1996 ft 162 kts 145°
2026-05-05 16:53 32.56914 -16.77987 1997 ft 161 kts 142°
2026-05-05 16:53 32.55941 -16.77330 1992 ft 159 kts 142°
2026-05-05 16:53 32.54983 -16.76670 1994 ft 160 kts 142°
2026-05-05 16:54 32.54028 -16.75966 1992 ft 163 kts 145°
2026-05-05 16:54 32.53096 -16.75179 1990 ft 165 kts 143°
2026-05-05 16:54 32.52172 -16.74365 1990 ft 166 kts 142°
2026-05-05 16:54 32.51248 -16.73553 1991 ft 166 kts 142°
2026-05-05 16:55 32.50322 -16.72738 1994 ft 166 kts 142°
2026-05-05 16:55 32.49393 -16.71920 2003 ft 168 kts 142°
2026-05-05 16:55 32.48448 -16.71107 1985 ft 167 kts 142°
2026-05-05 16:55 32.47549 -16.70300 1970 ft 162 kts 141°
2026-05-05 16:56 32.46634 -16.69484 1982 ft 161 kts 142°
2026-05-05 16:56 32.45964 -16.68474 1996 ft 160 kts 111°
2026-05-05 16:56 32.45685 -16.67206 1985 ft 158 kts 99°
2026-05-05 16:56 32.45520 -16.65934 1979 ft 158 kts 98°
2026-05-05 16:57 32.45368 -16.64639 1982 ft 158 kts 97°
2026-05-05 16:57 32.45212 -16.63342 1984 ft 159 kts 98°
2026-05-05 16:57 32.45401 -16.62054 2088 ft 170 kts 60°
2026-05-05 16:57 32.46263 -16.60988 2526 ft 191 kts 40°
2026-05-05 16:58 32.47384 -16.59993 3013 ft 210 kts 38°
2026-05-05 16:58 32.48592 -16.58949 3493 ft 218 kts 38°
2026-05-05 16:58 32.49827 -16.57875 3865 ft 222 kts 38°
2026-05-05 16:58 32.51078 -16.56786 3985 ft 223 kts 37°
2026-05-05 16:59 32.52329 -16.55689 3991 ft 224 kts 37°
2026-05-05 16:59 32.53586 -16.54587 3990 ft 225 kts 37°
2026-05-05 16:59 32.54845 -16.53487 3987 ft 225 kts 37°
2026-05-05 16:59 32.56105 -16.52379 3987 ft 225 kts 37°
2026-05-05 17:00 32.57346 -16.51287 3990 ft 225 kts 38°
2026-05-05 17:00 32.58630 -16.50180 3988 ft 224 kts 38°
2026-05-05 17:00 32.59885 -16.49190 3994 ft 215 kts 37°
2026-05-05 17:00 32.61129 -16.48228 4005 ft 208 kts 37°
2026-05-05 17:01 32.62345 -16.47313 4291 ft 210 kts 38°
2026-05-05 17:01 32.63578 -16.46377 4647 ft 211 kts 37°
2026-05-05 17:01 32.64812 -16.45416 5006 ft 214 kts 36°
2026-05-05 17:01 32.66077 -16.44465 5337 ft 218 kts 32°
2026-05-05 17:02 32.67556 -16.44037 5689 ft 223 kts
2026-05-05 17:02 32.69102 -16.44003 5948 ft 222 kts
2026-05-05 17:02 32.70651 -16.44019 6002 ft 222 kts
2026-05-05 17:02 32.72199 -16.44045 6001 ft 223 kts 360°
2026-05-05 17:03 32.73760 -16.44071 5988 ft 223 kts 360°
2026-05-05 17:03 32.75308 -16.44091 5986 ft 223 kts
2026-05-05 17:03 32.76860 -16.44156 5989 ft 224 kts 355°
2026-05-05 17:03 32.78341 -16.44718 6003 ft 226 kts 330°
2026-05-05 17:04 32.79412 -16.46032 6002 ft 225 kts 297°
2026-05-05 17:04 32.79648 -16.47836 5988 ft 222 kts 258°
2026-05-05 17:04 32.78959 -16.49439 6004 ft 218 kts 230°
2026-05-05 17:04 32.77961 -16.50781 5982 ft 217 kts 219°
2026-05-05 17:05 32.76739 -16.51836 5973 ft 217 kts 213°
2026-05-05 17:05 32.75507 -16.52868 5712 ft 216 kts 213°
2026-05-05 17:05 32.74300 -16.53950 5371 ft 221 kts 213°
2026-05-05 17:05 32.73101 -16.55135 5041 ft 226 kts 218°
2026-05-05 17:06 32.71948 -16.56362 4752 ft 216 kts 219°
2026-05-05 17:06 32.70899 -16.57543 4478 ft 200 kts 218°
2026-05-05 17:06 32.69953 -16.58655 4221 ft 190 kts 220°
2026-05-05 17:06 32.69045 -16.59776 3974 ft 189 kts 221°
2026-05-05 17:07 32.68175 -16.60947 3718 ft 189 kts 224°
2026-05-05 17:07 32.67361 -16.62183 3480 ft 190 kts 230°
2026-05-05 17:07 32.66624 -16.63472 3211 ft 189 kts 234°
2026-05-05 17:07 32.65974 -16.64835 3004 ft 190 kts 239°
2026-05-05 17:08 32.65428 -16.66294 2970 ft 196 kts 245°
2026-05-05 17:08 32.64852 -16.67745 3016 ft 192 kts 235°
2026-05-05 17:08 32.64176 -16.69123 3390 ft 194 kts 233°
2026-05-05 17:08 32.63485 -16.70508 3823 ft 196 kts 237°
2026-05-05 17:09 32.62745 -16.71870 3986 ft 196 kts 234°
2026-05-05 17:09 32.61984 -16.73201 3993 ft 195 kts 233°
2026-05-05 17:09 32.61214 -16.74540 3995 ft 196 kts 234°
2026-05-05 17:09 32.60451 -16.75855 3992 ft 195 kts 233°
2026-05-05 17:10 32.59682 -16.77181 3994 ft 195 kts 233°
2026-05-05 17:10 32.58912 -16.78526 3996 ft 198 kts 234°
2026-05-05 17:10 32.58144 -16.79868 3992 ft 197 kts 234°
2026-05-05 17:10 32.57378 -16.81215 3992 ft 199 kts 234°
2026-05-05 17:11 32.56630 -16.82613 3989 ft 201 kts 241°
2026-05-05 17:11 32.56290 -16.84136 3831 ft 185 kts 264°
2026-05-05 17:11 32.56037 -16.85606 3507 ft 179 kts 255°
2026-05-05 17:11 32.55936 -16.87049 3383 ft 183 kts 285°
2026-05-05 17:12 32.56611 -16.88240 3171 ft 169 kts 333°
2026-05-05 17:12 32.57663 -16.88559 2991 ft 151 kts
2026-05-05 17:12 32.58455 -16.87950 2783 ft 133 kts 64°
2026-05-05 17:12 32.58904 -16.86992 2453 ft 138 kts 63°
2026-05-05 17:13 32.59346 -16.85938 2024 ft 147 kts 65°
2026-05-05 17:13 32.59877 -16.84973 1980 ft 130 kts 55°
2026-05-05 17:13 32.60393 -16.84169 1875 ft 116 kts 56°
2026-05-05 17:13 32.60860 -16.83425 1664 ft 110 kts 54°
2026-05-05 17:14 32.61331 -16.82713 1525 ft 111 kts 50°
2026-05-05 17:14 32.61916 -16.82058 1426 ft 115 kts 43°
2026-05-05 17:14 32.62550 -16.81513 1370 ft 112 kts 36°
2026-05-05 17:14 32.63269 -16.81110 1341 ft 119 kts 19°
2026-05-05 17:15 32.64094 -16.80934 1158 ft 121 kts 17°
2026-05-05 17:15 32.64924 -16.80762 956 ft 120 kts
2026-05-05 17:15 32.65750 -16.80650 748 ft 118 kts 11°
2026-05-05 17:15 32.66556 -16.80518 672 ft 116 kts 13°
2026-05-05 17:16 32.67291 -16.80179 642 ft 113 kts 34°
2026-05-05 17:16 32.67880 -16.79595 502 ft 108 kts 34°
2026-05-05 17:16 32.68461 -16.79006 310 ft 112 kts 46°
2026-05-05 17:16 32.69025 -16.78340 216 ft 116 kts 45°
2026-05-05 17:17 32.69576 -16.77690 183 ft 102 kts 43°
2026-05-05 17:17 32.69937 -16.77273 208 ft 33 kts 44°
2026-05-05 17:17 32.69967 -16.77238 206 ft 0 kts 47°
2026-05-05 17:17 32.69967 -16.77212 209 ft 9 kts 99°
2026-05-05 17:18 32.69932 -16.77181 206 ft 6 kts 160°
2026-05-05 17:18 32.69873 -16.77176 198 ft 13 kts 176°
2026-05-05 17:18 32.69835 -16.77186 197 ft 0 kts 219°
2026-05-05 17:19 32.69830 -16.77191 204 ft 2 kts 219°
2026-05-05 17:20 32.69813 -16.77208 192 ft 8 kts 222°
2026-05-05 17:20 32.69720 -16.77324 178 ft 21 kts 226°
2026-05-05 17:20 32.69707 -16.77341 177 ft 0 kts 226°
2026-05-05 17:21 32.69701 -16.77348 176 ft 1 kts 226°
2026-05-05 17:21 32.69685 -16.77368 175 ft 6 kts 226°
2026-05-05 17:22 32.69645 -16.77356 175 ft 5 kts 133°
2026-05-05 17:22 32.69624 -16.77330 175 ft 3 kts 137°
2026-05-05 17:22 32.69616 -16.77322 175 ft 0 kts 138°
2026-05-05 17:22 32.69615 -16.77321 175 ft 0 kts 138°
2026-05-05 17:23 32.69614 -16.77320 175 ft 1 kts 137°